CZ-3B DEB, 40183

Orbit data source: Space-Track

CZ-3B DEB, 40183 is space debris in HEO originally from a launch on Mon, 19 Dec 2011 UTC launched from the Xichang Space Center, China (XSC). Debris objects in space refer to the collection of defunct objects orbiting the Earth. Examples of debris include non-operational satellites, rocket bodies, and fragments generated from explosions, collisions, or faulty payload assembly.

Loading next visibility...
Identifier
40183, 2011-077G
Orbit
HEO
Country
Flag of CNCN / PRC
Related business
Manufacturer
CALT
Mission
Spacecraft
Bus & Motor
Unknown
Mass
Unknown
Launch date (UTC)
2011-12-19 (14 years ago)
Launch vehicle
Unknown
Launch site
Xichang Space Center, China (XSC)
Object type
Payload
Rocket body
Debris
Shape & HBR
Unknown shape, 0.1 m
Radar Cross Section
Medium (>0.1 m² and <1 m²)

Expand to show TLE details & history
Last TLE update: 22 hours ago

TLE from 22 hours ago
0 CZ-3B DEB
1 40183U 11077G   25342.93472249 -.00000291  00000-0 -11192-2 0  9998
2 40183  22.0151 334.3579 7533524 217.0048  53.8792  1.85759237 77739
Epoch: 2025-12-08T22:26Z
TLE epoch observation values (Epoch: 2025-12-08T22:26:00.023Z)
Latitude
-0.00004°
Longitude
-80.08542°
Altitude
23,964.877 km
Speed
3.466 km/s
True Right ascension
22h 17m 21s
True Declination
0° 00' 00"
Sunlit
Object was in daylight at epoch
Visualization orbit readout
Latitude
Unknown
Longitude
Unknown
Altitude
Unknown
Speed
Unknown
Apparent Right ascension
Unknown
Apparent Declination
Unknown
Sunlit
N/A
Visualization observer readout
Local Sidereal Time
18:53:38
Azimuth
Unknown
Elevation
Unknown
Doppler factor
Unknown
Orbital elements
Apogee altitude
42,641.75 km
Perigee altitude
517.589 km
Semi-major axis
27,957.806 km
Eccentricity
0.75335
Inclination
22.0151°
RAAN
334.3579°
Arg. of periapsis
217.0048°
True anomaly
143.1313°
Mean anomaly
53.8792°
Eccentric anomaly
96.74441°
Mean motion
0.46429 °/min
Orbital period
775.38 mins
BSTAR
-0.0011192
Loading maneuver chart data...
Computing Atmospheric mass density...
Loading historical data...
Loading historical data...
Loading historical data...
Loading historical data...
Loading historical data...
Loading historical data...
Loading historical data...

Documentation

Showing up to 5 results
|